Regional Weather Roundup
Issued by NWS

Home | Current Version | Previous Version | Graphics & Text | Print | Product List | Glossary On
Versions: 1 2 3 4 5 6 7 8 9 10 11 12 13 14 15 16 17 18 19 20 21 22 23 24 25 26 27 28 29 30 31 32 33 34 35 36 37 38 39 40 41 42 43 44 45 46 47 48 49 50
000
ASUS43 KLOT 232308
RWRIL

ILLINOIS REGIONAL WEATHER ROUNDUP
NATIONAL WEATHER SERVICE CHICAGO/ROMEOVILLE IL
600 PM CDT MON APR 23 2018

NOTE: "FAIR" INDICATES FEW OR NO CLOUDS BELOW 12,000 FEET WITH NO
SIGNIFICANT WEATHER AND/OR OBSTRUCTIONS TO VISIBILITY.

* THESE STATIONS ARE NOT UNDER NWS QUALITY CONTROL. THEY ALSO MAY NOT
  REPORT WEATHER SUCH AS PRECIPITATION OR FOG.

ILZ001-002-007-009-015-016-024-240000-
NORTHWEST ILLINOIS

CITY           SKY/WX    TMP DP  RH WIND       PRES   REMARKS
MOLINE         FAIR      72  32  23 NE13      30.03S
STERLING*      FAIR      68  31  25 MISG        N/A
SAVANNA*       FAIR      70  31  23 NE10      30.07F
$$

ILZ003-004-008-010-011-017-018-240000-
NORTH CENTRAL ILLINOIS

CITY           SKY/WX    TMP DP  RH WIND       PRES   REMARKS
ROCKFORD       PTSUNNY   67  28  23 E13       30.10S
FREEPORT*      FAIR      67  31  26 NE15      30.11S
ROCHELLE*      FAIR      66  31  27 E16G22    30.08S
DE KALB*       FAIR      66  31  27 NE14      30.09S
PERU*          FAIR      69  38  31 E16       30.05S
$$

ILZ005-006-012>014-019>023-240000-
NORTHEAST ILLINOIS

CITY           SKY/WX    TMP DP  RH WIND       PRES   REMARKS
CHICAGO-OHARE  CLOUDY    59  25  27 NE14      30.10R
CHICAGO-MIDWAY CLOUDY    58  27  30 N13       30.10S
AURORA         FAIR      64  31  28 NE13      30.08R
LANSING*       LGT RAIN  49  38  65 N9        30.11S
JOLIET*        FAIR      63  35  35 E13       30.08S
WAUKEGAN       FAIR      55  22  27 N10G20    30.10F
DUPAGE AIRPORT FAIR      62  30  29 NE12      30.08S
KANKAKEE*      CLOUDY    57  43  58 NE8       30.08S
WHEELING       FAIR      58  21  24 NE10G21   30.12S
MORRIS*        FAIR      64  36  35 NE9       30.06S
ROMEOVILLE*    FAIR      61  35  36 NE14      30.08S
NORTHERLY ISL    N/A     48  29  48 NW15        N/A
$$

LMZ740>746-240000-
SOUTHERN LAKE MICHIGAN

STATION/POSITION SKY/WX   TEMP    WIND        PRES    VSBY  WAVE
                          AIR SEA DIR/SP/G                  HT/PER
                          (F)     (DEG/KT/KT) (MB)    (MI)  (FT/S)
HARRISON CRIB              43     330/ 10/ 11   N/A
BURNHAM HARBOR             48     330/ 13/ 16   N/A
CALUMET HARBOR             45     330/ 12/ 17 1018.9S
BURNS HARBOR               43     280/  2/  4 1020.0S
MICHIGAN CITY              43     210/  4/  5   N/A
ST. JOSEPH                 45 42  360/  2/  4 1019.8          1/ 3
$$

ILZ025>027-034>036-040-047-049-050-058-095>099-240000-
WEST-CENTRAL ILLINOIS

CITY           SKY/WX    TMP DP  RH WIND       PRES   REMARKS
QUINCY         PTSUNNY   68  35  29 NE18      30.00R
GALESBURG*     FAIR      74  33  22 E14G21    30.03F
MACOMB*        CLOUDY    67  35  29 E16       30.04S
JACKSONVILLE*  CLOUDY    63  51  66 E14       29.99S
PITTSFIELD*    CLOUDY    69  46  43 N13G20    29.99F
$$

ILZ028>032-037-038-041>044-048-051>054-059>061-240000-
CENTRAL ILLINOIS

CITY           SKY/WX    TMP DP  RH WIND       PRES   REMARKS
PONTIAC        LGT RAIN  64  53  68 E16G24    30.05R
BLOOMINGTON    LGT RAIN  58  54  86 E15       30.04R
DECATUR        LGT RAIN  56  55  97 E13       30.01S
PEORIA         FAIR      66  36  32 N9        30.02S
LACON*         FAIR      67  37  33 NE15      30.03S
LINCOLN*       CLOUDY    61  55  80 E10       30.02R
SPRINGFIELD    CLOUDY    61  54  77 E14       30.01R
TAYLORVILLE    DRIZZLE   56  54  93 E10       30.00S
$$

ILZ033-039-045-046-055>057-062-063-240000-
EAST-CENTRAL ILLINOIS

CITY           SKY/WX    TMP DP  RH WIND       PRES   REMARKS
CHAMPAIGN      LGT RAIN  57  55  93 E14       30.02F
DANVILLE*      RAIN      55  55  99 E8        30.02S
RANTOUL*       LGT RAIN  57  57  97 E13G20    30.04S
MATTOON        CLOUDY    56  54  93 E10       29.99S FOG
PARIS*         CLOUDY    57  55  91 NE10      30.02S
$$

ILZ079-100>102-240000-
SOUTHWEST ILLINOIS

CITY           SKY/WX    TMP DP  RH WIND       PRES   REMARKS
ALTON          CLOUDY    55  55 100 N5        29.98R
CAHOKIA*       CLOUDY    59  53  80 NE10      29.96S
SPARTA*        CLOUDY    60  58  94 N9        29.94S
$$

ILZ064>066-069>071-074>076-080>082-084>086-088>090-092>094-240000-
SOUTH-CENTRAL ILLINOIS

CITY           SKY/WX    TMP DP  RH WIND       PRES   REMARKS
CARBONDALE     CLOUDY    60  54  80 NE10      29.91R
CAIRO*         DRIZZLE   59  58  96 E5        29.89S
EFFINGHAM*     CLOUDY    57  56  98 NE6       29.99S
MARION         PTSUNNY   63  57  82 S9        29.92R
MT. VERNON     PTSUNNY   61  56  83 NE9       29.94S
CENTRALIA*     CLOUDY    61  56  85 NE8       29.94S
SALEM*         CLOUDY    60  55  82 NE6       29.95S
METROPOLIS*    CLOUDY    58  57  96 CALM      29.90F
$$

ILZ067-068-072-073-078-083-087-091-240000-
SOUTHEAST ILLINOIS

CITY           SKY/WX    TMP DP  RH WIND       PRES   REMARKS
LAWRENCEVILLE  CLOUDY    60  56  86 MISG      29.96F
FLORA*         CLOUDY    61  56  83 NE9       29.96S
FAIRFIELD*     CLOUDY    62  57  84 NE8       29.92F
HARRISBURG*    CLOUDY    66  57  74 NE7       29.91S
ROBINSON*      CLOUDY    57  55  92 E9        29.98F
CARMI*         PTSUNNY   65  58  77 NE13      29.91S
$$

ABBREVIATIONS USED IN REMARKS
   TC - TEMPERATURE IN CELSIUS
  WCI - WIND CHILL INDEX
   HX - HEAT INDEX
  VSB - VISIBILITY
$$





USA.gov is the U.S. government's official web portal to all federal, state and local government web resources and services.